Weather History for Morristown, NJ

Change the Weather History Date:

Sunday, April 13, 2014

  Actual Average Record
Temperature  
Mean Temperature 63 °F -  
Max Temperature 82 °F 60 °F 88 °F (1977)
Min Temperature 44 °F 35 °F 21 °F (1937)
Degree Days  
Heating Degree Days 2    
Growing Degree Days 13 (Base 50)    
Moisture  
Dew Point 44 °F    
Average Humidity 57    
Maximum Humidity 81    
Minimum Humidity 30    
Precipitation  
Precipitation 0.00 in - - ()
Sea Level Pressure  
Sea Level Pressure 30.11 in    
Wind  
Wind Speed 4 mph (SSW)    
Max Wind Speed 22 mph    
Max Gust Speed 31 mph    
Visibility 10 miles    
Events      
Averages and records for this station are not official NWS values.
T = Trace of Precipitation, MM = Missing Value Source: NWS Daily Summary

Daily Weather History Graph

Daily Weather History Graph

Search for Another Location

Airport:

Trip Planner

Search our weather history database for the weather conditions in past years. The results will help you decide how hot, cold, wet, or windy it might be!

Date:

Astronomy

Apr. 13, 2014 Rise Set
Actual Time 6:21 AM EDT 7:35 PM EDT
Civil Twilight 5:53 AM EDT 8:03 PM EDT
Nautical Twilight 5:19 AM EDT 8:37 PM EDT
Astronomical Twilight 4:44 AM EDT 9:12 PM EDT
Moon 6:09 PM EDT (4/13) 5:19 AM EDT (4/13)
Length of Visible Light 14h 09m
Length of Day
13h 13m
Waxing Gibbous, 97% of the Moon is Illuminated
Apr 13
Waxing Gibbous
Apr 15
Full
Apr 22
Last Quarter
Apr 29
New
May 6
First Quarter

Hourly Weather History & Observations

Time (EDT) Temp. Dew Point Humidity Pressure Visibility Wind Dir Wind Speed Gust Speed Precip Events Conditions
12:15 AM 53.6 °F 35.6 °F 51% 30.19 in 10.0 mi Calm Calm - N/A   Clear
12:35 AM 53.6 °F 32.0 °F 44% 30.19 in 10.0 mi South 3.5 mph - N/A   Clear
12:55 AM 55.4 °F 32.0 °F 41% 30.19 in 10.0 mi South 3.5 mph - N/A   Clear
1:15 AM 53.6 °F 32.0 °F 44% 30.21 in 10.0 mi South 3.5 mph - N/A   Clear
1:35 AM 51.8 °F 33.8 °F 50% 30.20 in 10.0 mi South 3.5 mph - N/A   Clear
1:55 AM 53.6 °F 33.8 °F 47% 30.19 in 10.0 mi South 3.5 mph - N/A   Clear
2:15 AM 51.8 °F 35.6 °F 54% 30.19 in 10.0 mi South 3.5 mph - N/A   Clear
2:35 AM 50.0 °F 33.8 °F 54% 30.19 in 10.0 mi Calm Calm - N/A   Clear
2:55 AM 46.4 °F 35.6 °F 66% 30.18 in 10.0 mi Calm Calm - N/A   Clear
3:15 AM 46.4 °F 37.4 °F 71% 30.18 in 10.0 mi Calm Calm - N/A   Clear
3:35 AM 44.6 °F 39.2 °F 81% 30.19 in 10.0 mi Calm Calm - N/A   Scattered Clouds
3:55 AM 46.4 °F 37.4 °F 71% 30.20 in 10.0 mi Calm Calm - N/A   Mostly Cloudy
4:15 AM 48.2 °F 39.2 °F 71% 30.18 in 10.0 mi Calm Calm - N/A   Overcast
4:35 AM 48.2 °F 39.2 °F 71% 30.18 in 10.0 mi Calm Calm - N/A   Overcast
4:55 AM 46.4 °F 39.2 °F 76% 30.17 in 10.0 mi Calm Calm - N/A   Mostly Cloudy
5:15 AM 48.2 °F 39.2 °F 71% 30.17 in 10.0 mi Calm Calm - N/A   Mostly Cloudy
5:35 AM 48.2 °F 39.2 °F 71% 30.17 in 10.0 mi Calm Calm - N/A   Overcast
5:55 AM 48.2 °F 41.0 °F 76% 30.17 in 10.0 mi Calm Calm - N/A   Overcast
6:15 AM 50.0 °F 41.0 °F 71% 30.17 in 10.0 mi Calm Calm - N/A   Overcast
6:35 AM 50.0 °F 41.0 °F 71% 30.18 in 10.0 mi Calm Calm - N/A   Overcast
6:45 AM 48.2 °F 41.0 °F 76% 30.18 in 10.0 mi Calm Calm - N/A   Overcast
7:45 AM 51.8 °F 41.0 °F 67% 30.18 in 10.0 mi Calm Calm - N/A   Overcast
8:45 AM 55.4 °F 46.4 °F 72% 30.17 in 10.0 mi Calm Calm - N/A   Overcast
9:45 AM 60.8 °F 51.8 °F 72% 30.15 in 10.0 mi SW 9.2 mph - N/A   Mostly Cloudy
10:45 AM 62.6 °F 51.8 °F 68% 30.13 in 10.0 mi South 10.4 mph - N/A   Mostly Cloudy
11:45 AM 68.0 °F 53.6 °F 60% 30.11 in 10.0 mi WSW 8.1 mph - N/A   Mostly Cloudy
12:45 PM 73.4 °F 53.6 °F 50% 30.08 in 10.0 mi WSW 11.5 mph - N/A   Mostly Cloudy
1:45 PM 78.8 °F 50.0 °F 36% 30.05 in 10.0 mi SW 11.5 mph 19.6 mph N/A   Mostly Cloudy
2:45 PM 82.4 °F 48.2 °F 30% 30.01 in 10.0 mi WSW 17.3 mph 25.3 mph N/A   Mostly Cloudy
3:45 PM 80.6 °F 48.2 °F 32% 29.99 in 10.0 mi SSW 17.3 mph 31.1 mph N/A   Mostly Cloudy
4:45 PM 78.8 °F 48.2 °F 34% 29.97 in 10.0 mi SW 21.9 mph 29.9 mph N/A   Mostly Cloudy
5:45 PM 80.6 °F 48.2 °F 32% 29.99 in 10.0 mi SW 15.0 mph 26.5 mph N/A   Partly Cloudy
6:45 PM 78.8 °F 48.2 °F 34% 29.97 in 10.0 mi SW 19.6 mph 26.5 mph N/A   Partly Cloudy
7:45 PM 75.2 °F 50.0 °F 41% 29.98 in 10.0 mi SW 13.8 mph 20.7 mph N/A   Scattered Clouds
8:45 PM 73.4 °F 51.8 °F 47% 30.00 in 10.0 mi South 9.2 mph - N/A   Clear
9:45 PM 69.8 °F 53.6 °F 56% 30.01 in 10.0 mi SSW 12.7 mph 18.4 mph N/A   Clear
10:15 PM 69.8 °F 51.8 °F 53% 30.01 in 10.0 mi South 4.6 mph - N/A   Clear
10:35 PM 69.8 °F 51.8 °F 53% 30.00 in 10.0 mi South 8.1 mph 18.4 mph N/A   Clear
10:55 PM 68.0 °F 53.6 °F 60% 30.00 in 10.0 mi SSW 10.4 mph - N/A   Clear
11:15 PM 68.0 °F 53.6 °F 60% 30.00 in 10.0 mi SSW 9.2 mph - N/A   Clear
11:35 PM 68.0 °F 53.6 °F 60% 30.00 in 10.0 mi SSW 6.9 mph - N/A   Clear
11:55 PM 68.0 °F 53.6 °F 60% 30.00 in 10.0 mi SSW 5.8 mph - N/A   Clear